Change the Weather History Date:

Friday, February 18, 2011

  Actual Average Record
Temperature  
Mean Temperature -3 °F 0 °F  
Max Temperature 12 °F 12 °F 40 °F (1911)
Min Temperature -18 °F -12 °F -50 °F (1937)
Degree Days  
Heating Degree Days 68 65  
Month to date heating degree days 1306 1228  
Since 1 July heating degree days 9600 9760  
Cooling Degree Days 0 0  
Month to date cooling degree days 0 0  
Year to date cooling degree days 0 0  
Moisture  
Dew Point 3 °F    
Average Humidity 85    
Maximum Humidity 96    
Minimum Humidity 73    
Precipitation  
Precipitation 0.13 in 0.01 in 0.56 in (1996)
Month to date precipitation 0.43 0.28  
Year to date precipitation 0.62 0.86  
Snow  
Snow 2.10 in 0.30 in 11.30 in (1996)
Month to date snowfall 6.2 5.4  
Since 1 July snowfall 32.7 53.6  
Snow Depth 16.00 in    
Sea Level Pressure  
Sea Level Pressure 29.93 in    
Wind  
Wind Speed 1 mph (NNE)    
Max Wind Speed 4 mph    
Max Gust Speed -    
Visibility 5 miles    
Events Fog , Snow    
T = Trace of Precipitation, MM = Missing Value Source: NWS Daily Summary

Daily Weather History Graph

Daily Weather History Graph

Search for Another Location

Airport or City:

Trip Planner

Search our weather history database for the weather conditions in past years. The results will help you decide how hot, cold, wet, or windy it might be!

Date:

Astronomy

Feb. 18, 2011 Rise Set
Actual Time 8:39 AM AKST 5:32 PM AKST
Civil Twilight 7:48 AM AKST 6:24 PM AKST
Nautical Twilight 6:51 AM AKST 7:21 PM AKST
Astronomical Twilight 5:54 AM AKST 8:18 PM AKST
Moon 7:21 PM AKST (2/18) 8:03 AM AKST (2/18)
Length of Visible Light 10h 36m
Length of Day
8h 52m
Full, 100% of the Moon is Illuminated
Feb 18
Full
Feb 24
Last Quarter
Mar 4
New
Mar 12
First Quarter
Mar 19
Full

Hourly Weather History & Observations

Time (AKST) Temp. Windchill Dew Point Humidity Pressure Visibility Wind Dir Wind Speed Gust Speed Precip Events Conditions
12:53 AM 8.1 °F 1.4 °F 3.0 °F 80% 29.90 in 3.0 mi North 3.5 mph - 0.00 in Snow Light Snow
1:53 AM 8.1 °F - 3.9 °F 83% 29.87 in 3.0 mi Calm Calm - 0.01 in Snow Light Snow
2:53 AM 8.1 °F - 3.0 °F 80% 29.84 in 7.0 mi Calm Calm - 0.00 in Snow Light Snow
3:53 AM 9.0 °F - 1.9 °F 73% 29.83 in 8.0 mi Calm Calm - 0.00 in Snow Light Snow
4:16 AM 8.6 °F 2.0 °F 3.2 °F 79% 29.79 in 2.0 mi NNW 3.5 mph - 0.01 in Snow Light Snow
4:24 AM 8.6 °F 2.0 °F 3.2 °F 79% 29.79 in 1.5 mi NNW 3.5 mph - 0.01 in Snow Light Snow
4:53 AM 9.0 °F 2.4 °F 5.0 °F 84% 29.83 in 2.5 mi NNW 3.5 mph - 0.02 in Snow Light Snow
5:09 AM 8.6 °F - 5.0 °F 85% 29.79 in 3.0 mi Calm Calm - 0.00 in Snow Light Snow
5:53 AM 9.0 °F 2.4 °F 5.0 °F 84% 29.85 in 2.0 mi NW 3.5 mph - 0.01 in Snow Light Snow
6:53 AM 9.0 °F - 6.1 °F 88% 29.86 in 2.0 mi Calm Calm - 0.01 in Snow Light Snow
7:53 AM 10.0 °F - 6.1 °F 84% 29.89 in 2.0 mi Calm Calm - 0.01 in Snow Light Snow
8:32 AM 8.6 °F - 6.8 °F 92% 29.87 in 2.0 mi Calm Calm - 0.00 in Snow Light Snow
8:40 AM 8.6 °F 2.0 °F 6.8 °F 92% 29.87 in 1.0 mi ESE 3.5 mph - 0.00 in Snow Light Snow
8:53 AM 9.0 °F 2.4 °F 6.1 °F 88% 29.91 in 1.5 mi East 3.5 mph - 0.00 in Snow Light Snow
9:12 AM 10.4 °F - 6.8 °F 85% 29.88 in 0.5 mi Calm Calm - 0.01 in Fog , Snow Snow
9:42 AM 8.6 °F 2.0 °F 6.8 °F 92% 29.89 in 1.0 mi East 3.5 mph - 0.03 in Snow Light Snow
9:53 AM 10.0 °F - 6.1 °F 84% 29.94 in 1.5 mi Calm Calm - 0.03 in Snow Light Snow
10:10 AM 10.4 °F - 6.8 °F 85% 29.90 in 2.0 mi Calm Calm - 0.00 in Snow Light Snow
10:25 AM 10.4 °F - 6.8 °F 85% 29.90 in 3.0 mi Calm Calm - 0.02 in Snow Light Snow
10:43 AM 10.4 °F 4.0 °F 6.8 °F 85% 29.91 in 3.0 mi East 3.5 mph - 0.03 in Snow Light Snow
10:53 AM 9.0 °F - 6.1 °F 88% 29.95 in 5.0 mi Calm Calm - 0.03 in Snow Light Snow
11:53 AM 10.0 °F - 5.0 °F 80% 29.98 in 10.0 mi Calm Calm - 0.00 in   Mostly Cloudy
12:25 PM 10.4 °F - 6.8 °F 85% 29.95 in 10.0 mi Calm Calm - 0.00 in Snow Light Snow
12:47 PM 10.4 °F - 6.8 °F 85% 29.95 in 10.0 mi Calm Calm - 0.00 in   Mostly Cloudy
12:53 PM 10.9 °F - 7.0 °F 84% 30.00 in 10.0 mi Calm Calm - 0.00 in   Mostly Cloudy
1:40 PM 10.4 °F - 6.8 °F 85% 29.97 in 2.5 mi Calm Calm - 0.00 in Snow Light Snow
1:53 PM 10.9 °F - 7.0 °F 84% 30.01 in 2.0 mi Calm Calm - 0.00 in Snow Light Snow
2:02 PM 12.2 °F - 8.6 °F 85% 29.96 in 1.0 mi Calm Calm - 0.00 in Snow Light Snow
2:22 PM 10.4 °F - 6.8 °F 85% 29.96 in 2.0 mi Calm Calm - 0.00 in Snow Light Snow
2:32 PM 10.4 °F - 6.8 °F 85% 29.96 in 3.0 mi Calm Calm - 0.01 in Snow Light Snow
2:53 PM 12.0 °F - 7.0 °F 80% 30.01 in 2.5 mi Calm Calm - 0.01 in Snow Light Snow
3:02 PM 10.4 °F - 8.6 °F 92% 29.97 in 1.5 mi Calm Calm - 0.00 in Snow Light Snow
3:17 PM 12.2 °F - 8.6 °F 85% 29.98 in 5.0 mi Calm Calm - 0.00 in Snow Light Snow
3:28 PM 10.4 °F 4.0 °F 6.8 °F 85% 29.98 in 10.0 mi WNW 3.5 mph - 0.00 in Snow Light Snow
3:53 PM 8.1 °F - 6.1 °F 92% 30.03 in 10.0 mi Calm Calm - 0.00 in   Mostly Cloudy
4:53 PM -2.0 °F - -2.9 °F 96% 30.04 in 10.0 mi Calm Calm - N/A   Scattered Clouds
5:53 PM 3.9 °F - 1.0 °F 88% 30.04 in 10.0 mi Calm Calm - N/A   Scattered Clouds
6:53 PM 1.0 °F - -4.0 °F 79% 30.04 in 10.0 mi Calm Calm - N/A   Scattered Clouds
7:53 PM -9.0 °F -18.2 °F -11.9 °F 87% 30.04 in 10.0 mi ESE 3.5 mph - N/A   Scattered Clouds
8:53 PM -7.6 °F - -11.2 °F 84% 29.98 in 10.0 mi Calm Calm - N/A   Scattered Clouds
9:53 PM -13.0 °F - -15.0 °F 91% 30.03 in 10.0 mi Calm Calm - N/A   Scattered Clouds
10:53 PM -13.0 °F - -18.0 °F 78% 30.02 in 10.0 mi Calm Calm - N/A   Scattered Clouds
11:53 PM -16.1 °F -26.2 °F -18.9 °F 87% 30.01 in 10.0 mi NE 3.5 mph - N/A   Partly Cloudy